VOI781 KMCO-MMMX

Flight info

Callsign VOI781
Flight time N/A
Altitude 34000
Route OSPRY1 CIGAR M215 MINOW M580 IRDOV UM580 NUBEL UT154 ENAGA ENAGA3B
Aircraft A21N/M-SDE2E3FGHIRWXY/LB1

Departure

Time 2026-05-05 22:57
Airport Orlando International Airport (KMCO)

Arrival

Time N/A
Airport Mexico City Benito Juárez International Airport (MMMX)
Time Latitude Longitude Altitude Speed Heading
2026-05-05 22:34 28.42519 -81.30017 100 ft 0 kts 359°
2026-05-05 22:45 28.42500 -81.30016 102 ft 4 kts 359°
2026-05-05 22:45 28.42473 -81.30015 100 ft 4 kts 359°
2026-05-05 22:45 28.42451 -81.30014 99 ft 4 kts 344°
2026-05-05 22:46 28.42435 -81.30002 99 ft 4 kts 277°
2026-05-05 22:46 28.42441 -81.29977 98 ft 4 kts 247°
2026-05-05 22:46 28.42444 -81.29969 97 ft 0 kts 247°
2026-05-05 22:50 28.42437 -81.29987 98 ft 5 kts 251°
2026-05-05 22:50 28.42429 -81.30042 100 ft 8 kts 272°
2026-05-05 22:50 28.42426 -81.30115 101 ft 11 kts 236°
2026-05-05 22:51 28.42350 -81.30135 100 ft 13 kts 179°
2026-05-05 22:51 28.42277 -81.30188 100 ft 15 kts 264°
2026-05-05 22:51 28.42276 -81.30315 100 ft 17 kts 269°
2026-05-05 22:51 28.42269 -81.30456 100 ft 19 kts 265°
2026-05-05 22:52 28.42258 -81.30611 102 ft 21 kts 265°
2026-05-05 22:52 28.42247 -81.30778 100 ft 22 kts 265°
2026-05-05 22:52 28.42234 -81.30960 101 ft 24 kts 267°
2026-05-05 22:52 28.42254 -81.31149 100 ft 25 kts 281°
2026-05-05 22:53 28.42269 -81.31357 100 ft 27 kts 269°
2026-05-05 22:53 28.42267 -81.31577 102 ft 28 kts 269°
2026-05-05 22:53 28.42266 -81.31745 104 ft 16 kts 270°
2026-05-05 22:53 28.42225 -81.31844 104 ft 16 kts 195°
2026-05-05 22:54 28.42111 -81.31877 103 ft 18 kts 186°
2026-05-05 22:54 28.41980 -81.31878 103 ft 20 kts 179°
2026-05-05 22:54 28.41838 -81.31876 103 ft 21 kts 179°
2026-05-05 22:54 28.41697 -81.31878 103 ft 18 kts 181°
2026-05-05 22:55 28.41586 -81.31879 103 ft 14 kts 189°
2026-05-05 22:55 28.41543 -81.31965 103 ft 15 kts 269°
2026-05-05 22:55 28.41543 -81.32089 103 ft 17 kts 270°
2026-05-05 22:55 28.41561 -81.32183 102 ft 12 kts 324°
2026-05-05 22:56 28.41661 -81.32197 102 ft 26 kts 359°
2026-05-05 22:56 28.42098 -81.32200 106 ft 100 kts 360°
2026-05-05 22:56 28.43013 -81.32210 103 ft 160 kts
2026-05-05 22:56 28.44244 -81.32219 401 ft 178 kts
2026-05-05 22:57 28.45468 -81.32226 1150 ft 175 kts
2026-05-05 22:57 28.46692 -81.32282 1801 ft 179 kts
2026-05-05 22:57 28.47984 -81.32310 2359 ft 193 kts
2026-05-05 22:57 28.49377 -81.32310 2998 ft 207 kts
2026-05-05 22:58 28.50875 -81.32314 3554 ft 227 kts 359°
2026-05-05 22:58 28.52524 -81.32479 4138 ft 246 kts 354°
2026-05-05 22:58 28.54250 -81.32737 4973 ft 253 kts 351°
2026-05-05 22:58 28.55937 -81.33321 5867 ft 256 kts 335°
2026-05-05 22:59 28.57542 -81.34167 6521 ft 259 kts 331°
2026-05-05 22:59 28.58979 -81.35367 6913 ft 256 kts 308°
2026-05-05 22:59 28.59788 -81.37224 7046 ft 275 kts 278°
2026-05-05 22:59 28.59853 -81.39377 7843 ft 276 kts 268°
2026-05-05 23:00 28.59717 -81.43737 9841 ft 275 kts 269°
2026-05-05 23:00 28.59672 -81.45942 10525 ft 285 kts 269°
2026-05-05 23:00 28.59552 -81.48262 10940 ft 303 kts 262°
2026-05-05 23:01 28.58851 -81.50569 11505 ft 317 kts 243°
2026-05-05 23:01 28.57508 -81.52599 12207 ft 325 kts 232°
2026-05-05 23:01 28.55995 -81.54538 12939 ft 330 kts 232°
2026-05-05 23:01 28.54487 -81.56466 13632 ft 335 kts 232°
2026-05-05 23:02 28.52957 -81.58445 14275 ft 340 kts 233°
2026-05-05 23:02 28.51400 -81.60486 14935 ft 344 kts 233°
2026-05-05 23:02 28.49827 -81.62557 15600 ft 347 kts 233°
2026-05-05 23:02 28.48242 -81.64650 16268 ft 351 kts 234°
2026-05-05 23:03 28.46640 -81.66764 16926 ft 355 kts 234°
2026-05-05 23:03 28.45024 -81.68896 17588 ft 358 kts 234°
2026-05-05 23:03 28.43386 -81.71054 18242 ft 362 kts 234°
2026-05-05 23:03 28.41734 -81.73231 18823 ft 365 kts 234°
2026-05-05 23:04 28.40068 -81.75421 19398 ft 368 kts 234°
2026-05-05 23:04 28.38390 -81.77625 19977 ft 370 kts 234°
2026-05-05 23:04 28.36701 -81.79841 20556 ft 372 kts 234°
2026-05-05 23:04 28.35004 -81.82067 21132 ft 374 kts 234°
2026-05-05 23:05 28.33291 -81.84314 21717 ft 377 kts 235°
2026-05-05 23:05 28.31598 -81.86538 22268 ft 379 kts 235°
2026-05-05 23:05 28.30018 -81.88868 22806 ft 375 kts 244°
2026-05-05 23:05 28.28999 -81.91549 23338 ft 368 kts 259°
2026-05-05 23:06 28.28419 -81.94412 23834 ft 369 kts 262°
2026-05-05 23:06 28.27912 -81.97233 24267 ft 371 kts 263°
2026-05-05 23:06 28.27394 -82.00109 24711 ft 373 kts 263°
2026-05-05 23:06 28.26846 -82.03038 25158 ft 376 kts 263°
2026-05-05 23:07 28.26302 -82.05898 25587 ft 378 kts 263°
2026-05-05 23:07 28.25743 -82.08820 26011 ft 380 kts 263°
2026-05-05 23:07 28.25169 -82.11799 26441 ft 382 kts 263°
2026-05-05 23:07 28.24603 -82.14754 26855 ft 385 kts 263°
2026-05-05 23:08 28.24036 -82.17728 27262 ft 387 kts 263°
2026-05-05 23:08 28.23472 -82.20678 27663 ft 389 kts 264°
2026-05-05 23:08 28.22894 -82.23685 28062 ft 391 kts 264°
2026-05-05 23:08 28.22312 -82.26701 28455 ft 394 kts 264°
2026-05-05 23:09 28.21725 -82.29748 28832 ft 396 kts 264°
2026-05-05 23:09 28.21135 -82.32801 29200 ft 398 kts 264°
2026-05-05 23:09 28.20543 -82.35875 29569 ft 400 kts 264°
2026-05-05 23:09 28.19945 -82.38964 29928 ft 402 kts 264°
2026-05-05 23:10 28.19345 -82.42072 30243 ft 404 kts 264°
2026-05-05 23:10 28.18742 -82.45191 30548 ft 406 kts 264°
2026-05-05 23:10 28.18141 -82.48313 30861 ft 407 kts 264°
2026-05-05 23:10 28.17537 -82.51454 31181 ft 408 kts 264°
2026-05-05 23:11 28.16929 -82.54587 31602 ft 406 kts 264°
2026-05-05 23:11 28.16322 -82.57701 32012 ft 403 kts 264°
2026-05-05 23:11 28.15727 -82.60762 32404 ft 402 kts 265°
2026-05-05 23:11 28.15126 -82.63854 32707 ft 403 kts 265°
2026-05-05 23:12 28.14521 -82.66961 32867 ft 407 kts 265°
2026-05-05 23:12 28.13904 -82.70115 32984 ft 413 kts 264°
2026-05-05 23:12 28.13273 -82.73312 33171 ft 416 kts 264°
2026-05-05 23:12 28.12639 -82.76517 33472 ft 416 kts 264°
2026-05-05 23:13 28.12009 -82.79707 33797 ft 414 kts 264°
2026-05-05 23:13 28.11388 -82.82892 34023 ft 415 kts 265°
2026-05-05 23:13 28.10128 -82.89279 34058 ft 415 kts 264°
2026-05-05 23:14 28.08926 -82.95663 34034 ft 414 kts 265°
2026-05-05 23:14 28.06725 -83.01810 34035 ft 434 kts 247°
2026-05-05 23:15 28.03453 -83.07571 34030 ft 435 kts 246°
2026-05-05 23:15 28.00185 -83.13332 34028 ft 434 kts 246°
2026-05-05 23:16 27.96953 -83.19104 34034 ft 434 kts 246°
2026-05-05 23:16 27.93728 -83.24873 34034 ft 434 kts 246°
2026-05-05 23:17 27.90521 -83.30597 34033 ft 434 kts 246°
2026-05-05 23:17 27.87288 -83.36348 34027 ft 433 kts 246°
2026-05-05 23:18 27.84059 -83.42093 34030 ft 433 kts 245°
2026-05-05 23:18 27.80830 -83.47830 34033 ft 433 kts 245°
2026-05-05 23:19 27.77597 -83.53571 34027 ft 433 kts 245°
2026-05-05 23:19 27.74380 -83.59288 34031 ft 430 kts 245°
2026-05-05 23:20 27.71164 -83.64988 34032 ft 430 kts 245°
2026-05-05 23:20 27.67937 -83.70690 34033 ft 431 kts 245°
2026-05-05 23:21 27.64712 -83.76392 34032 ft 431 kts 245°
2026-05-05 23:21 27.61483 -83.82083 34032 ft 431 kts 245°
2026-05-05 23:22 27.58249 -83.87771 34033 ft 431 kts 245°
2026-05-05 23:22 27.55018 -83.93454 34031 ft 430 kts 245°
2026-05-05 23:23 27.51819 -83.99078 34032 ft 429 kts 245°
2026-05-05 23:23 27.48597 -84.04733 34031 ft 429 kts 245°
2026-05-05 23:24 27.45367 -84.10385 34035 ft 429 kts 244°
2026-05-05 23:24 27.42139 -84.16032 34035 ft 429 kts 244°
2026-05-05 23:25 27.38901 -84.21687 34037 ft 429 kts 244°
2026-05-05 23:25 27.35667 -84.27338 34017 ft 429 kts 244°
2026-05-05 23:26 27.32975 -84.32035 34028 ft 431 kts 244°
2026-05-05 23:26 27.29719 -84.37697 34036 ft 431 kts 244°
2026-05-05 23:27 27.26464 -84.43361 34035 ft 431 kts 244°
2026-05-05 23:27 27.23200 -84.49020 34035 ft 431 kts 244°
2026-05-05 23:28 27.19943 -84.54673 34032 ft 431 kts 244°
2026-05-05 23:28 27.16675 -84.60327 34032 ft 431 kts 244°
2026-05-05 23:29 27.13409 -84.65981 34036 ft 432 kts 244°
2026-05-05 23:29 27.10135 -84.71632 34034 ft 432 kts 244°
2026-05-05 23:30 27.06861 -84.77286 34020 ft 433 kts 244°
2026-05-05 23:30 27.03583 -84.82934 34033 ft 435 kts 244°
2026-05-05 23:31 27.00273 -84.88628 34034 ft 436 kts 243°
2026-05-05 23:31 26.96957 -84.94319 34032 ft 436 kts 244°
2026-05-05 23:32 26.93644 -85.00013 34032 ft 436 kts 243°
2026-05-05 23:32 26.90328 -85.05700 34023 ft 436 kts 243°
2026-05-05 23:33 26.87011 -85.11384 34032 ft 436 kts 243°
2026-05-05 23:33 26.83681 -85.17061 34032 ft 436 kts 243°
2026-05-05 23:34 26.80350 -85.22734 34032 ft 436 kts 243°
2026-05-05 23:34 26.77026 -85.28422 34025 ft 438 kts 243°
2026-05-05 23:35 26.73693 -85.34097 34035 ft 439 kts 243°
2026-05-05 23:35 26.70308 -85.39848 34030 ft 440 kts 243°
2026-05-05 23:36 26.66974 -85.45521 34025 ft 438 kts 243°
2026-05-05 23:36 26.62818 -85.50611 34028 ft 454 kts 225°
2026-05-05 23:37 26.57702 -85.54813 34027 ft 457 kts 223°
2026-05-05 23:37 26.52578 -85.58988 34026 ft 456 kts 223°
2026-05-05 23:38 26.47477 -85.63194 34015 ft 457 kts 223°
2026-05-05 23:38 26.42356 -85.67409 34027 ft 458 kts 223°
2026-05-05 23:39 26.37223 -85.71624 34026 ft 458 kts 223°
2026-05-05 23:39 26.32098 -85.75837 34027 ft 458 kts 223°
2026-05-05 23:40 26.26967 -85.80047 34027 ft 457 kts 223°
2026-05-05 23:40 26.21839 -85.84247 34026 ft 457 kts 223°
2026-05-05 23:41 26.16717 -85.88441 34018 ft 455 kts 223°
2026-05-05 23:41 26.11609 -85.92616 34023 ft 455 kts 222°
2026-05-05 23:42 26.06511 -85.96786 34022 ft 454 kts 224°
2026-05-05 23:42 26.02247 -86.01711 34027 ft 441 kts 238°
2026-05-05 23:43 25.98582 -86.07173 34024 ft 441 kts 239°
2026-05-05 23:43 25.94896 -86.12622 34020 ft 441 kts 239°
2026-05-05 23:44 25.91190 -86.18058 34021 ft 441 kts 239°
2026-05-05 23:44 25.87471 -86.23499 34021 ft 443 kts 238°
2026-05-05 23:45 25.83739 -86.28959 34012 ft 443 kts 238°
2026-05-05 23:45 25.80011 -86.34415 34023 ft 443 kts 238°
2026-05-05 23:46 25.76277 -86.39864 34012 ft 444 kts 238°
2026-05-05 23:46 25.72542 -86.45312 34018 ft 444 kts 238°
2026-05-05 23:47 25.68804 -86.50749 34013 ft 444 kts 238°
2026-05-05 23:47 25.65066 -86.56191 34012 ft 444 kts 238°
2026-05-05 23:48 25.61341 -86.61601 34018 ft 445 kts 238°
2026-05-05 23:48 25.57575 -86.67065 34002 ft 448 kts 238°
2026-05-05 23:49 25.53788 -86.72554 34009 ft 449 kts 238°
2026-05-05 23:49 25.49997 -86.78043 34005 ft 449 kts 238°
2026-05-05 23:50 25.46200 -86.83529 34008 ft 449 kts 238°
2026-05-05 23:50 25.42403 -86.89017 34015 ft 449 kts 238°
2026-05-05 23:51 25.38595 -86.94505 34016 ft 449 kts 238°
2026-05-05 23:51 25.34802 -86.99972 33999 ft 448 kts 238°
2026-05-05 23:52 25.31008 -87.05432 34001 ft 447 kts 238°
2026-05-05 23:52 25.27213 -87.10891 34001 ft 448 kts 238°
2026-05-05 23:53 25.23409 -87.16358 33998 ft 449 kts 238°
2026-05-05 23:53 25.19601 -87.21821 34002 ft 449 kts 238°
2026-05-05 23:54 25.15785 -87.27283 33998 ft 449 kts 238°
2026-05-05 23:54 25.11974 -87.32743 33999 ft 449 kts 238°
2026-05-05 23:55 25.08195 -87.38138 33996 ft 446 kts 237°
2026-05-05 23:55 25.04402 -87.43553 33992 ft 446 kts 237°
2026-05-05 23:56 25.00606 -87.48973 33995 ft 446 kts 237°
2026-05-05 23:56 24.96812 -87.54382 33985 ft 447 kts 237°
2026-05-05 23:57 24.92995 -87.59814 33994 ft 448 kts 237°
2026-05-05 23:57 24.89175 -87.65242 33995 ft 448 kts 237°
2026-05-05 23:58 24.85356 -87.70665 33993 ft 448 kts 237°
2026-05-05 23:58 24.81533 -87.76082 33989 ft 448 kts 237°
2026-05-05 23:59 24.77715 -87.81498 33986 ft 448 kts 237°
2026-05-05 23:59 24.73892 -87.86908 33984 ft 448 kts 237°
2026-05-06 00:00 24.70092 -87.92279 33985 ft 447 kts 237°
2026-05-06 00:00 24.66242 -87.97713 33989 ft 447 kts 237°
2026-05-06 00:01 24.62437 -88.03078 33980 ft 447 kts 237°
2026-05-06 00:01 24.58609 -88.08471 33978 ft 447 kts 237°
2026-05-06 00:02 24.54788 -88.13850 33978 ft 446 kts 237°
2026-05-06 00:02 24.50972 -88.19231 33979 ft 446 kts 238°
2026-05-06 00:03 24.47908 -88.25060 33982 ft 439 kts 248°
2026-05-06 00:03 24.45182 -88.31064 33981 ft 439 kts 248°
2026-05-06 00:04 24.42443 -88.37053 33979 ft 439 kts 248°
2026-05-06 00:04 24.39692 -88.43052 33978 ft 440 kts 248°
2026-05-06 00:05 24.35554 -88.52059 33968 ft 441 kts 247°
2026-05-06 00:06 24.32779 -88.58070 33972 ft 442 kts 247°
2026-05-06 00:06 24.30002 -88.64080 33971 ft 442 kts 247°
2026-05-06 00:07 24.27228 -88.70093 33972 ft 442 kts 247°
2026-05-06 00:07 24.24468 -88.76060 33971 ft 442 kts 247°
2026-05-06 00:08 24.21687 -88.82066 33961 ft 442 kts 247°
2026-05-06 00:08 24.18909 -88.88063 33958 ft 442 kts 247°
2026-05-06 00:09 24.16118 -88.94070 33967 ft 442 kts 247°
2026-05-06 00:09 24.13331 -89.00062 33965 ft 442 kts 247°
2026-05-06 00:10 24.10540 -89.06061 33960 ft 442 kts 246°
2026-05-06 00:10 24.07751 -89.12055 33959 ft 442 kts 246°
2026-05-06 00:11 24.04955 -89.18050 33956 ft 443 kts 246°
2026-05-06 00:11 24.02144 -89.24058 33952 ft 443 kts 246°
2026-05-06 00:12 23.99358 -89.30023 33949 ft 443 kts 246°
2026-05-06 00:12 23.96546 -89.36023 33953 ft 443 kts 246°
2026-05-06 00:13 23.93729 -89.42022 33953 ft 443 kts 246°
2026-05-06 00:13 23.90903 -89.48021 33951 ft 443 kts 246°
2026-05-06 00:14 23.88089 -89.54008 33945 ft 443 kts 246°
2026-05-06 00:14 23.85271 -89.59999 33944 ft 443 kts 246°
2026-05-06 00:15 23.82925 -89.64977 33945 ft 443 kts 246°
2026-05-06 00:15 23.80093 -89.70968 33939 ft 443 kts 246°
2026-05-06 00:16 23.76807 -89.77919 33944 ft 443 kts 246°
2026-05-06 00:16 23.74440 -89.82923 33931 ft 443 kts 246°
2026-05-06 00:17 23.71599 -89.88923 33944 ft 445 kts 246°
2026-05-06 00:17 23.68779 -89.94877 33945 ft 445 kts 246°
2026-05-06 00:18 23.65931 -90.00875 33930 ft 445 kts 245°
2026-05-06 00:18 23.63084 -90.06854 33937 ft 444 kts 245°
2026-05-06 00:19 23.60240 -90.12828 33940 ft 444 kts 245°
2026-05-06 00:19 23.57391 -90.18800 33935 ft 444 kts 245°
2026-05-06 00:20 23.54542 -90.24764 33935 ft 444 kts 245°
2026-05-06 00:20 23.51692 -90.30732 33928 ft 444 kts 245°
2026-05-06 00:21 23.48839 -90.36701 33931 ft 444 kts 245°
2026-05-06 00:21 23.45986 -90.42654 33928 ft 442 kts 245°
2026-05-06 00:22 23.43142 -90.48591 33923 ft 442 kts 245°
2026-05-06 00:22 23.40316 -90.54487 33921 ft 442 kts 245°
2026-05-06 00:23 23.37458 -90.60418 33927 ft 442 kts 245°
2026-05-06 00:23 23.34604 -90.66346 33917 ft 442 kts 245°
2026-05-06 00:24 23.31749 -90.72272 33915 ft 442 kts 245°
2026-05-06 00:24 23.28897 -90.78197 33917 ft 442 kts 244°
2026-05-06 00:25 23.26035 -90.84121 33916 ft 442 kts 244°
2026-05-06 00:25 23.23170 -90.90042 33918 ft 442 kts 244°
2026-05-06 00:26 23.20311 -90.95946 33910 ft 442 kts 244°
2026-05-06 00:26 23.17447 -91.01855 33913 ft 442 kts 244°
2026-05-06 00:27 23.14580 -91.07762 33909 ft 442 kts 244°
2026-05-06 00:27 23.11710 -91.13664 33904 ft 442 kts 244°
2026-05-06 00:28 23.08857 -91.19533 33899 ft 444 kts 243°
2026-05-06 00:28 23.05965 -91.25474 33903 ft 445 kts 243°
2026-05-06 00:29 23.03063 -91.31416 33900 ft 445 kts 243°
2026-05-06 00:29 23.00160 -91.37358 33899 ft 445 kts 243°
2026-05-06 00:30 22.97259 -91.43302 33897 ft 445 kts 243°
2026-05-06 00:30 22.94362 -91.49243 33900 ft 445 kts 243°
2026-05-06 00:31 22.91446 -91.55163 33894 ft 445 kts 243°
2026-05-06 00:31 22.88534 -91.61090 33894 ft 445 kts 243°
2026-05-06 00:32 22.85617 -91.67019 33894 ft 445 kts 243°
2026-05-06 00:32 22.82706 -91.72933 33889 ft 445 kts 243°
2026-05-06 00:33 22.79784 -91.78847 33890 ft 445 kts 243°
2026-05-06 00:33 22.76874 -91.84769 33881 ft 445 kts 243°
2026-05-06 00:34 22.73936 -91.90745 33888 ft 451 kts 242°
2026-05-06 00:34 22.70973 -91.96733 33889 ft 450 kts 242°
2026-05-06 00:35 22.68024 -92.02712 33880 ft 450 kts 242°
2026-05-06 00:35 22.65107 -92.08716 33879 ft 450 kts 243°